User: anonymous   Login
Location: ??????
(38.0677°N, 22.9870°E)
Time: 19:49:59
(UTC+00:00)
Language:

ASTEX 1 - Orbit

View from above orbital plane
View from above orbital plane
View from above satellite
View from above satellite

Ground track
Ground track

The orbit data is extracted from the following two-line orbital elements,

1 05560U 71089A   24197.87926991  .00000953  00000-0  24909-3 0  9999
2 05560  92.7219 317.1142 0014411 322.4074  37.6123 14.49448011775085
Epoch (UTC): 15 July 2024 21:06:08
Eccentricity: 0.0014411
inclination: 92.7219°
perigee height: 717 km
apogee height: 737 km
right ascension of ascending node: 317.1142°
argument of perigee: 322.4074°
revolutions per day: 14.49448011
mean anomaly at epoch: 37.6123°
orbit number at epoch: 77508

The dashed part of the orbit path shows where the satellite is in the earth's shadow,  

DLR